SCP
2 3 3 1 0 0 0 0 0 0 0 0 0 0 0 0 0 0 0 0 0 -0 0 0 0 0 0 0 0 0 1 1 1 1 1 0 0 0
3 2 2 2 1 1 1 0 0 0 0 0 0 0 0 0 0 0 0 0 0 0 0 0 0 0 0 0 0 0 0 0 0 0 0 0 0 0
2 2 2 2 2 1 1 1 0 1 0 0 0 0 0 0 0 0 0 0 0 0 0 0 0 0 0 0 0 0 0 0 0 0 0 0 0 0
1 1 1 1 1 1 1 1 1 1 1 0 0 0 0 0 0 0 0 0 0 0 0 0 0 0 0 0 0 0 0 0 0 0 0 0 0 0
0 1 1 1 1 1 1 1 1 1 1 0 0 0 0 0 0 0 0 0 0 0 0 0 0 0 0 0 0 0 0 0 0 0 0 0 0 0
0 0 0 0 0 0 0 0 0 1 1 0 1 0 0 0 0 0 0 0 0 0 0 -0 0 0 0 0 0 0 0 0 0 0 0 0 0 0
0 0 0 0 0 0 0 0 0 0 0 0 0 0 0 0 0 0 0 0 0 0 1 0 1 1 1 0 0 0 0 0 0 0 0 0 0 0
0 0 0 0 0 0 0 0 0 0 0 0 0 0 0 0 0 0 0 0 0 0 0 0 0 1 1 1 0 0 0 0 0 0 0 0 0 0
0 0 0 0 0 0 0 0 0 0 0 0 0 0 0 0 0 0 0 0 0 0 0 0 0 1 1 1 0 0 0 0 0 0 0 0 0 0
0 0 0 0 0 0 0 0 0 0 0 0 0 0 0 0 0 0 0 0 0 1 0 0 0 1 1 0 0 0 0 0 0 0 0 0 0 0
0 0 0 0 0 0 0 0 0 0 0 0 0 0 0 0 0 0 0 0 0 0 0 1 1 1 1 0 0 0 0 0 0 0 0 0 0 0
0 0 0 0 0 0 0 0 0 0 0 0 0 0 0 0 0 0 0 -0 0 0 0 0 0 1 0 0 0 0 0 0 0 0 0 0 0 0
0 0 0 0 0 0 -0 0 0 0 0 0 -0 0 0 0 0 0 -0 0 0 0 0 0 0 0 0 0 0 0 0 0 0 0 0 0 0 0
0 0 -0 -0 -0 0 0 0 0 0 -0 0 0 0 0 0 0 0 0 0 0 0 0 0 0 0 0 0 0 0 0 0 0 0 0 0 0 0
-0 0 -0 -0 0 -0 0 0 -0 0 -0 -0 0 0 0 0 0 0 0 0 0 0 0 0 0 0 0 0 0 0 0 0 0 0 0 0 0 0
0 0 0 -0 -0 -0 0 0 0 -0 0 -0 -0 -0 0 0 0 0 0 0 0 0 0 0 0 0 0 0 0 0 0 0 0 0 0 0 0 0
0 0 0 0 0 0 0 0 0 0 0 0 -0 0 -0 -0 0 0 -0 -0 0 -0 -0 -0 0 0 0 0 0 0 0 0 0 0 0 0 0 0
0 0 0 0 0 0 0 0 0 0 0 0 0 0 0 0 0 -0 -0 -0 -0 -0 -0 0 0 0 0 0 0 0 0 0 0 0 0 0 0 0
-0 0 0 0 0 0 0 0 0 0 0 0 0 0 0 0 0 -0 -0 -0 0 0 0 0 0 0 0 0 0 0 0 0 0 0 0 0 0 0
0 0 0 0 0 0 0 0 0 0 0 0 0 0 0 0 0 0 0 0 0 0 0 0 0 0 0 0 0 0 0 0 0 0 0 0 0 0
0 0 0 0 0 0 0 0 0 0 0 0 0 0 0 0 0 0 -0 -0 0 0 0 0 0 0 0 0 0 0 0 0 0 0 0 0 0 0
0 0 0 0 0 0 0 0 0 0 0 0 0 0 0 0 0 0 0 -0 0 0 0 0 0 0 0 0 0 0 0 0 0 0 0 0 0 0
0 0 0 0 0 0 0 0 0 -0 0 0 0 0 0 0 -0 0 0 -0 -0 -0 -0 0 0 0 0 0 0 0 0 0 0 0 0 0 0 0
Wind_Speed_500mb
75 73 76 73 70 64 61 58 59 59 58 58 60 55 52 51 57 58 52 46 56 66 66 59 39 43 56 66 72 70 63 69 69 64 55 51 46 42
88 79 81 76 76 73 69 66 65 66 70 61 60 60 62 56 52 58 62 61 64 67 49 55 51 50 53 59 67 69 67 68 69 66 58 51 47 42
87 92 98 88 82 79 77 75 72 69 75 72 64 57 64 70 76 79 71 65 65 68 65 59 46 40 48 53 56 59 66 73 73 66 58 53 48 43
86 94 97 91 90 89 90 89 85 78 76 81 76 77 81 67 62 56 57 49 52 54 60 54 47 44 47 50 46 46 57 71 75 67 55 54 45 45
82 85 89 92 98 95 93 86 79 78 83 85 84 71 59 53 73 93 78 68 56 56 59 59 60 68 54 49 52 51 58 66 73 56 56 47 44 43
80 81 83 82 82 84 92 95 88 92 92 86 85 81 78 73 65 70 71 60 51 54 53 61 60 59 60 59 62 62 61 65 68 61 50 46 41 38
75 80 80 77 79 87 84 78 83 89 87 87 84 75 68 60 63 63 62 56 54 54 59 60 59 57 64 72 69 69 72 68 68 57 49 44 39 32
80 74 71 83 99 104 101 104 99 96 95 94 86 76 70 68 70 69 73 73 73 69 75 70 58 55 60 59 58 61 65 62 63 59 42 42 36 32
82 81 74 67 72 73 79 82 85 109 113 115 109 100 91 82 79 80 76 77 84 90 68 69 59 61 63 50 43 49 54 53 52 44 42 41 35 27
77 71 71 78 72 72 76 80 87 88 96 96 102 113 111 100 94 84 86 96 93 83 70 74 66 61 54 58 45 43 40 46 45 44 45 40 32 29
62 63 61 69 63 70 74 84 84 88 85 87 90 84 87 87 92 88 103 82 76 76 64 62 59 55 51 54 50 42 47 51 47 46 42 37 35 34
53 52 52 56 62 62 68 82 92 99 94 79 73 92 101 108 113 106 94 84 60 44 47 48 37 37 16 22 39 46 46 47 44 44 41 40 37 42
55 53 49 53 41 42 49 56 48 49 48 65 70 69 53 39 51 50 61 59 54 45 42 38 42 44 21 34 31 35 40 44 45 44 43 40 41 39
54 56 50 52 38 19 18 23 26 21 15 13 14 17 28 27 32 35 46 46 52 44 35 37 22 24 19 23 20 27 34 37 38 39 39 40 38 33
63 40 39 25 13 7 11 7 9 11 7 17 13 20 23 30 33 41 45 42 31 33 37 40 12 20 16 9 16 23 32 32 29 29 33 32 32 34
19 20 27 13 6 20 22 26 24 9 9 14 13 14 14 13 21 30 40 45 39 29 19 19 15 26 24 16 13 25 33 26 35 33 33 37 33 35
9 13 14 12 9 13 17 22 16 4 9 14 14 13 16 16 12 19 18 25 22 31 26 31 34 28 24 24 20 26 30 24 27 31 32 33 41 31
20 13 12 9 15 9 2 4 10 12 18 11 13 17 17 17 17 24 27 26 28 27 28 36 36 28 23 18 19 23 27 24 25 29 33 39 41 34
16 24 24 10 2 8 8 14 17 20 18 11 17 11 11 12 12 20 23 23 22 18 22 28 30 28 23 23 22 20 22 29 31 34 38 44 46 51
12 13 7 6 9 21 19 19 18 19 19 18 19 18 15 13 13 16 18 22 20 23 17 16 17 18 20 22 23 21 30 26 28 35 47 53 56 50
9 14 12 21 24 21 22 24 24 27 25 23 23 20 23 11 17 11 12 17 26 23 25 26 21 15 13 13 18 24 27 27 31 39 60 62 60 56
10 15 12 19 16 17 17 18 19 18 21 22 24 23 20 20 17 10 9 14 15 24 24 19 15 12 11 19 25 36 43 44 45 47 50 50 63 48
5 7 10 11 12 13 14 15 13 15 18 21 22 23 21 16 17 15 6 12 10 16 22 25 23 16 10 15 35 52 56 57 58 58 49 47 31 39
Wind_Direction_500mb
257 258 261 259 258 257 264 269 275 283 284 286 287 288 290 286 285 288 291 293 272 280 281 273 273 258 256 254 253 254 253 244 240 243 249 255 256 261
258 256 256 254 256 255 255 260 265 270 277 279 284 284 287 289 287 290 289 286 286 283 289 291 276 267 257 259 252 249 245 235 236 242 248 253 251 257
259 260 256 254 254 253 256 258 260 262 269 273 271 278 285 290 286 289 288 282 278 280 284 283 279 264 252 255 250 248 242 233 234 239 245 249 250 257
269 265 262 259 255 257 255 255 257 256 263 271 273 275 278 281 287 292 291 285 283 275 275 271 272 265 257 250 252 244 236 231 235 238 240 244 251 260
269 268 270 267 264 262 260 260 260 261 257 259 263 263 263 272 285 285 288 285 282 274 269 268 260 259 255 252 248 242 238 237 241 233 237 240 251 261
270 270 270 268 270 272 270 265 262 259 258 261 263 266 268 271 275 279 279 277 274 274 274 263 267 267 259 252 247 244 238 233 240 235 231 237 250 258
274 271 267 265 265 263 267 272 271 265 261 259 260 262 261 266 262 270 280 288 289 286 275 265 268 255 263 252 249 240 234 233 234 228 224 236 242 250
268 272 272 271 264 260 261 260 260 265 266 263 261 258 257 256 267 268 275 281 285 277 278 267 263 255 256 260 254 238 228 227 224 221 217 232 238 244
270 272 274 275 272 272 272 269 273 259 256 260 261 259 260 258 259 262 268 270 274 278 264 266 257 251 247 239 248 230 223 222 218 207 218 229 231 234
272 273 270 272 274 278 275 274 271 268 261 259 257 258 259 260 259 262 267 278 277 262 250 257 250 249 244 236 231 221 209 205 205 207 220 221 223 232
276 271 271 271 274 278 278 282 279 270 264 260 258 259 257 257 259 258 268 270 257 253 251 246 247 241 223 231 224 210 204 201 200 211 214 219 229 231
280 276 280 279 283 284 279 277 275 267 266 264 258 254 256 259 260 257 250 249 232 250 247 224 228 210 175 194 197 189 191 195 204 211 217 227 225 224
280 281 276 279 277 277 282 290 281 277 260 253 259 264 265 249 234 222 215 229 241 222 236 232 237 197 179 144 162 180 192 201 209 218 222 219 216 223
280 279 272 278 289 306 328 48 72 83 97 156 170 177 190 205 212 215 210 227 234 228 209 197 176 153 190 148 166 186 207 208 212 215 212 212 214 212
278 263 274 268 132 33 178 174 169 153 95 83 115 112 109 106 137 166 167 147 153 159 172 164 160 198 199 161 208 209 191 200 201 203 204 201 206 208
261 243 236 256 255 238 262 275 274 267 231 157 126 114 99 116 152 135 146 150 151 148 150 185 176 170 182 189 202 178 189 185 189 187 190 191 199 201
174 205 182 204 263 266 293 281 292 108 116 121 128 139 155 165 162 157 137 144 145 158 195 193 192 173 171 162 158 176 192 186 181 188 195 199 191 194
146 154 136 142 193 237 209 199 113 100 138 133 190 168 177 188 189 172 169 176 178 180 185 185 183 174 177 148 176 180 189 193 188 194 200 203 190 194
143 136 155 181 292 238 121 56 44 46 50 116 61 110 108 148 167 171 180 182 182 184 190 187 191 202 203 205 209 222 224 209 199 193 200 198 181 172
137 152 117 332 358 63 63 68 61 59 61 52 61 58 60 72 103 127 145 152 141 147 138 144 165 185 207 226 209 207 209 217 210 198 182 172 156 155
144 144 89 75 89 73 65 60 59 58 53 45 42 36 25 51 48 98 131 147 154 153 150 163 179 206 236 259 226 193 192 186 189 179 163 157 156 152
234 329 63 89 86 84 76 68 59 50 45 40 35 31 29 26 34 48 124 149 172 184 182 177 185 212 236 236 212 183 165 166 171 168 168 176 162 158
109 126 21 71 76 71 65 51 53 56 42 29 28 27 23 24 6 355 101 139 174 159 172 184 200 205 221 182 174 160 154 157 158 160 159 156 145 145
Wind_Speed_850mb
75 73 76 73 70 64 61 58 59 59 58 58 60 55 52 51 57 58 52 46 56 66 66 59 39 43 56 66 72 70 63 69 69 64 55 51 46 42
88 79 81 76 76 73 69 66 65 66 70 61 60 60 62 56 52 58 62 61 64 67 49 55 51 50 53 59 67 69 67 68 69 66 58 51 47 42
87 92 98 88 82 79 77 75 72 69 75 72 64 57 64 70 76 79 71 65 65 68 65 59 46 40 48 53 56 59 66 73 73 66 58 53 48 43
86 94 97 91 90 89 90 89 85 78 76 81 76 77 81 67 62 56 57 49 52 54 60 54 47 44 47 50 46 46 57 71 75 67 55 54 45 45
82 85 89 92 98 95 93 86 79 78 83 85 84 71 59 53 73 93 78 68 56 56 59 59 60 68 54 49 52 51 58 66 73 56 56 47 44 43
80 81 83 82 82 84 92 95 88 92 92 86 85 81 78 73 65 70 71 60 51 54 53 61 60 59 60 59 62 62 61 65 68 61 50 46 41 38
75 80 80 77 79 87 84 78 83 89 87 87 84 75 68 60 63 63 62 56 54 54 59 60 59 57 64 72 69 69 72 68 68 57 49 44 39 32
80 74 71 83 99 104 101 104 99 96 95 94 86 76 70 68 70 69 73 73 73 69 75 70 58 55 60 59 58 61 65 62 63 59 42 42 36 32
82 81 74 67 72 73 79 82 85 109 113 115 109 100 91 82 79 80 76 77 84 90 68 69 59 61 63 50 43 49 54 53 52 44 42 41 35 27
77 71 71 78 72 72 76 80 87 88 96 96 102 113 111 100 94 84 86 96 93 83 70 74 66 61 54 58 45 43 40 46 45 44 45 40 32 29
62 63 61 69 63 70 74 84 84 88 85 87 90 84 87 87 92 88 103 82 76 76 64 62 59 55 51 54 50 42 47 51 47 46 42 37 35 34
53 52 52 56 62 62 68 82 92 99 94 79 73 92 101 108 113 106 94 84 60 44 47 48 37 37 16 22 39 46 46 47 44 44 41 40 37 42
55 53 49 53 41 42 49 56 48 49 48 65 70 69 53 39 51 50 61 59 54 45 42 38 42 44 21 34 31 35 40 44 45 44 43 40 41 39
54 56 50 52 38 19 18 23 26 21 15 13 14 17 28 27 32 35 46 46 52 44 35 37 22 24 19 23 20 27 34 37 38 39 39 40 38 33
63 40 39 25 13 7 11 7 9 11 7 17 13 20 23 30 33 41 45 42 31 33 37 40 12 20 16 9 16 23 32 32 29 29 33 32 32 34
19 20 27 13 6 20 22 26 24 9 9 14 13 14 14 13 21 30 40 45 39 29 19 19 15 26 24 16 13 25 33 26 35 33 33 37 33 35
9 13 14 12 9 13 17 22 16 4 9 14 14 13 16 16 12 19 18 25 22 31 26 31 34 28 24 24 20 26 30 24 27 31 32 33 41 31
20 13 12 9 15 9 2 4 10 12 18 11 13 17 17 17 17 24 27 26 28 27 28 36 36 28 23 18 19 23 27 24 25 29 33 39 41 34
16 24 24 10 2 8 8 14 17 20 18 11 17 11 11 12 12 20 23 23 22 18 22 28 30 28 23 23 22 20 22 29 31 34 38 44 46 51
12 13 7 6 9 21 19 19 18 19 19 18 19 18 15 13 13 16 18 22 20 23 17 16 17 18 20 22 23 21 30 26 28 35 47 53 56 50
9 14 12 21 24 21 22 24 24 27 25 23 23 20 23 11 17 11 12 17 26 23 25 26 21 15 13 13 18 24 27 27 31 39 60 62 60 56
10 15 12 19 16 17 17 18 19 18 21 22 24 23 20 20 17 10 9 14 15 24 24 19 15 12 11 19 25 36 43 44 45 47 50 50 63 48
5 7 10 11 12 13 14 15 13 15 18 21 22 23 21 16 17 15 6 12 10 16 22 25 23 16 10 15 35 52 56 57 58 58 49 47 31 39
Wind_Direction_850mb
257 258 261 259 258 257 264 269 275 283 284 286 287 288 290 286 285 288 291 293 272 280 281 273 273 258 256 254 253 254 253 244 240 243 249 255 256 261
258 256 256 254 256 255 255 260 265 270 277 279 284 284 287 289 287 290 289 286 286 283 289 291 276 267 257 259 252 249 245 235 236 242 248 253 251 257
259 260 256 254 254 253 256 258 260 262 269 273 271 278 285 290 286 289 288 282 278 280 284 283 279 264 252 255 250 248 242 233 234 239 245 249 250 257
269 265 262 259 255 257 255 255 257 256 263 271 273 275 278 281 287 292 291 285 283 275 275 271 272 265 257 250 252 244 236 231 235 238 240 244 251 260
269 268 270 267 264 262 260 260 260 261 257 259 263 263 263 272 285 285 288 285 282 274 269 268 260 259 255 252 248 242 238 237 241 233 237 240 251 261
270 270 270 268 270 272 270 265 262 259 258 261 263 266 268 271 275 279 279 277 274 274 274 263 267 267 259 252 247 244 238 233 240 235 231 237 250 258
274 271 267 265 265 263 267 272 271 265 261 259 260 262 261 266 262 270 280 288 289 286 275 265 268 255 263 252 249 240 234 233 234 228 224 236 242 250
268 272 272 271 264 260 261 260 260 265 266 263 261 258 257 256 267 268 275 281 285 277 278 267 263 255 256 260 254 238 228 227 224 221 217 232 238 244
270 272 274 275 272 272 272 269 273 259 256 260 261 259 260 258 259 262 268 270 274 278 264 266 257 251 247 239 248 230 223 222 218 207 218 229 231 234
272 273 270 272 274 278 275 274 271 268 261 259 257 258 259 260 259 262 267 278 277 262 250 257 250 249 244 236 231 221 209 205 205 207 220 221 223 232
276 271 271 271 274 278 278 282 279 270 264 260 258 259 257 257 259 258 268 270 257 253 251 246 247 241 223 231 224 210 204 201 200 211 214 219 229 231
280 276 280 279 283 284 279 277 275 267 266 264 258 254 256 259 260 257 250 249 232 250 247 224 228 210 175 194 197 189 191 195 204 211 217 227 225 224
280 281 276 279 277 277 282 290 281 277 260 253 259 264 265 249 234 222 215 229 241 222 236 232 237 197 179 144 162 180 192 201 209 218 222 219 216 223
280 279 272 278 289 306 328 48 72 83 97 156 170 177 190 205 212 215 210 227 234 228 209 197 176 153 190 148 166 186 207 208 212 215 212 212 214 212
278 263 274 268 132 33 178 174 169 153 95 83 115 112 109 106 137 166 167 147 153 159 172 164 160 198 199 161 208 209 191 200 201 203 204 201 206 208
261 243 236 256 255 238 262 275 274 267 231 157 126 114 99 116 152 135 146 150 151 148 150 185 176 170 182 189 202 178 189 185 189 187 190 191 199 201
174 205 182 204 263 266 293 281 292 108 116 121 128 139 155 165 162 157 137 144 145 158 195 193 192 173 171 162 158 176 192 186 181 188 195 199 191 194
146 154 136 142 193 237 209 199 113 100 138 133 190 168 177 188 189 172 169 176 178 180 185 185 183 174 177 148 176 180 189 193 188 194 200 203 190 194
143 136 155 181 292 238 121 56 44 46 50 116 61 110 108 148 167 171 180 182 182 184 190 187 191 202 203 205 209 222 224 209 199 193 200 198 181 172
137 152 117 332 358 63 63 68 61 59 61 52 61 58 60 72 103 127 145 152 141 147 138 144 165 185 207 226 209 207 209 217 210 198 182 172 156 155
144 144 89 75 89 73 65 60 59 58 53 45 42 36 25 51 48 98 131 147 154 153 150 163 179 206 236 259 226 193 192 186 189 179 163 157 156 152
234 329 63 89 86 84 76 68 59 50 45 40 35 31 29 26 34 48 124 149 172 184 182 177 185 212 236 236 212 183 165 166 171 168 168 176 162 158
109 126 21 71 76 71 65 51 53 56 42 29 28 27 23 24 6 355 101 139 174 159 172 184 200 205 221 182 174 160 154 157 158 160 159 156 145 145